Regional Weather Roundup
Issued by NWS Upton, NY

Current Version | Previous Version | Text Only | Print | Product List | Glossary Off
Versions: 1 2 3 4 5 6 7 8 9 10 11 12 13 14 15 16 17 18 19 20 21 22 23 24 25 26 27
000 ASUS41 KOKX 262008 RWROKX REGIONAL WEATHER ROUNDUP NATIONAL WEATHER SERVICE NEW YORK NY 300 PM EST SUN FEB 26 2017 NOTE: "FAIR" INDICATES FEW OR NO CLOUDS BELOW 12,000 FEET WITH NO SIGNIFICANT WEATHER AND/OR OBSTRUCTIONS TO VISIBILITY. NYZ071-072-176-178-NJZ106-104-262100- NEW YORK CITY METRO AREA CITY SKY/WX TMP DP RH WIND PRES REMARKS Central Park SUNNY 41 13 31 NW8G18 30.06R Wall St Helipt NOT AVBL LaGuardia APRT MOSUNNY 44 13 28 W15G25 30.04R Kennedy INTL MOSUNNY 44 17 33 NW16G23 30.05R Breezy Point N/A 41 N/A N/A W12G20 N/A Newark/Liberty MOSUNNY 44 15 31 NW15 30.05R Teterboro MOSUNNY 43 18 36 W13G25 30.04R $$ NYZ177-179-078>081-262100- LONG ISLAND NEW YORK CITY SKY/WX TMP DP RH WIND PRES REMARKS Jones Beach N/A 39 N/A N/A W20G25 N/A WCI 30 Matinecock PT NOT AVBL Farmingdale SUNNY 42 15 33 W15G23 30.03R MacArthur/ISP MOSUNNY 42 16 34 W15G24 30.01R Shirley SUNNY 41 18 39 W15G25 30.01R Westhampton SUNNY 42 14 32 NW17G26 30.01R Southampton NOT AVBL Bridgehampton NOT AVBL East Hampton N/A 40 17 39 W15G22 29.97S WCI 32 Montauk N/A 42 21 43 W17G24 29.97R $$ NYZ052-065-067-262100- HUDSON VALLEY CITY SKY/WX TMP DP RH WIND PRES REMARKS White Plains MOSUNNY 39 16 39 NW16G26 30.00R WCI 30 Newburgh PTSUNNY 37 19 48 W17G29 30.03R WCI 28 Montgomery CLOUDY 39 17 41 W16G22 30.02R WCI 30 Poughkeepsie PTSUNNY 39 15 37 NW13 30.01S WCI 31 Albany CLOUDY 36 15 42 NW15G25 30.02R WCI 27 $$ NJZ001-105-106-008-010-013-015-019>022-104-262100- NEW JERSEY CITY SKY/WX TMP DP RH WIND PRES REMARKS Newark/Liberty MOSUNNY 44 15 31 NW15 30.05R Teterboro MOSUNNY 43 18 36 W13G25 30.04R Caldwell MOSUNNY 42 14 32 NW10 30.04R Somerville MOSUNNY 41 17 38 W8 30.05R Linden NOT AVBL Sussex MOSUNNY 39 15 37 NW10G18 30.03R WCI 32 Andover N/A 38 13 35 VRB7 30.03R WCI 33 Trenton MOSUNNY 40 17 39 NW12 30.08R WCI 33 Millville SUNNY 43 20 39 W20 30.11R Atlantic City SUNNY 44 16 32 W16G24 30.09R Wrightstown MOSUNNY 43 18 36 NW13G22 30.06R Toms River SUNNY 42 18 37 NW21 30.07S Belmar MOSUNNY 41 19 41 NW13G25 30.07R $$ PAZ047>061-062-071-262100- EASTERN PENNSYLVANIA CITY SKY/WX TMP DP RH WIND PRES REMARKS Philadelphia MOSUNNY 42 14 32 W20 30.11R Allentown PTSUNNY 38 17 42 W16G22 30.08R WCI 29 Scranton CLOUDY 36 18 48 N13 30.03R WCI 27 $$ CTZ002-004>006-009-010-012-RIZ004-006-007-MAZ004-011-015-262100- SOUTHERN NEW ENGLAND IN CT CITY SKY/WX TMP DP RH WIND PRES REMARKS Bradley INTL PTSUNNY 37 14 38 NW17 29.98R WCI 27 Hartford CLOUDY 40 17 39 NW16G25 30.00R WCI 31 Danbury SUNNY 38 14 37 W14G20 30.01R WCI 30 Wtrbury/Oxford PTSUNNY 37 12 35 NW13G23 29.99R WCI 29 Bridgeport MOSUNNY 43 17 35 W16G25 30.00R Meriden MOSUNNY 40 15 36 NW13G25 29.99R WCI 32 New Haven MOSUNNY 42 17 36 NW15G23 29.99R Chester N/A 39 14 35 NW13G20 29.96R WCI 32 Groton MOSUNNY 43 17 35 NW20G28 29.96R Wilimantic SUNNY 40 16 37 NW10 29.97R WCI 33 IN RI CITY SKY/WX TMP DP RH WIND PRES REMARKS Providence MOSUNNY 42 13 30 W18G28 29.92R Block Island SUNNY 42 19 39 W12G23 29.95R Westerly SUNNY 43 13 29 NW10G22 29.95R IN MA CITY SKY/WX TMP DP RH WIND PRES REMARKS Boston MOSUNNY 43 17 35 W20G29 29.88R Worcester MOSUNNY 35 11 36 W17G33 29.88R WCI 25 Westfield MOSUNNY 37 14 38 NW23G35 29.97R WCI 26 Provincetown SUNNY 43 24 47 W14G22 29.88R Nantucket SUNNY 43 22 43 W24G30 29.90R $$ ANZ330-335-338-340-345-350-353-355-262100- COASTAL MARINE OBSERVATIONS STATION/POSITION TIME SKY/WX TEMP WIND PRES VSBY WAVE AIR SEA DIR/SP/G HT/PER (UTC) (F) (DEG/KT/KT) (MB) (MI) (FT/S) NY HARB ENTRANCE 1850 39 43 290/ 19/ 23 1016.6 3/10 20 S FIRE ISLAND 1950 39 43 280/ 21/ 25 1016.8 5/10 GREAT SOUTH BAY NOT AVBL 23 SSW MONTAUK P 1850 39 44 1015.1 5/11 15 E BARNEGAT LI 1930 44 N/A 4/10 HUDSON CANYON 1850 48 1016.9 7/ 7 KINGS POINT 1942 40 41 1016.7 EXECUTION ROCKS NOT AVBL CENTRAL LI SOUND 1930 40 270/ 14/ 16 N/A 3/ 5 EASTERN LI SOUND NOT AVBL ROBBINS REEF 1942 40 310/ 17/ 21 1017.5 $$ >>>>>>>>>>>>>>>>>>>>>>>>>>>> KEY <<<<<<<<<<<<<<<<<<<<<<<<<<< > < > SKY/WX - Sky Condition/Present Weather < > TMP - Temperature in Fahrenheit < > DP - Dew Point in Fahrenheit < > RH - Relative Humidity in Percent < > WIND - Direction (from) and Speed in MPH < > PRES - Mean Sea Level Pressure (inches of Hg) < > WCI - Wind Chill Index < > VSB - VISIBILITY IN MILES < > HX - HEAT INDEX < > TC - TEMPERATURE IN CELSIUS < > VRB - VARIABLE WIND DIRECTION < > < >>>>>>>>>>>>>>>>>>>>>>>>>>>> KEY <<<<<<<<<<<<<<<<<<<<<<<<<<<

USA.gov is the U.S. government's official web portal to all federal, state and local government web resources and services.